Nogales, AZ

10:28 PM MST on July 23, 2017 (GMT -0700)
Nogales International

Weather History for KOLS - March, 2014

Change the Weather History Date:

Saturday, March 1, 2014

  Actual Average (KFHU) Record (KFHU)
Temperature  
Mean Temperature 54 °F -  
Max Temperature 62 °F 61 °F 80 °F (1999)
Min Temperature 46 °F 39 °F 30 °F (1987)
Degree Days  
Heating Degree Days 11    
Growing Degree Days 4 (Base 50)    
Moisture  
Dew Point 44 °F    
Average Humidity 77    
Maximum Humidity 93    
Minimum Humidity 31    
Precipitation  
Precipitation 1.42 in - - ()
Sea Level Pressure  
Sea Level Pressure 29.92 in    
Wind  
Wind Speed 10 mph (South)    
Max Wind Speed 25 mph    
Max Gust Speed 34 mph    
Visibility 7 miles    
Events Rain    
Averages and records for this station are not official NWS values.
T = Trace of Precipitation, MM = Missing Value Source: NWS Daily Summary

Daily Weather History Graph

Daily Weather History Graph

Search for Another Location

Airport or City:

Trip Planner

Search our weather history database for the weather conditions in past years. The results will help you decide how hot, cold, wet, or windy it might be!

Date:

Astronomy

Mar. 01, 2014 Rise Set
Actual Time 6:50 AM MST 6:21 PM MST
Civil Twilight 6:25 AM MST 6:46 PM MST
Nautical Twilight 5:57 AM MST 7:14 PM MST
Astronomical Twilight 5:29 AM MST 7:42 PM MST
Moon 6:49 AM MST (3/1) 7:07 PM MST (3/1)
Length of Visible Light 12h 20m
Length of Day
11h 31m
New Moon, 0% of the Moon is Illuminated
Mar 1
New Moon
Mar 8
First Quarter
Mar 16
Full
Mar 23
Last Quarter
Mar 30
New

Hourly Weather History & Observations

Time (MST) Temp. Windchill Dew Point Humidity Pressure Visibility Wind Dir Wind Speed Gust Speed Precip Events Conditions
12:54 AM 62.1 °F - 30.9 °F 31% 29.81 in 10.0 mi South 9.2 mph - N/A   Overcast
1:54 AM 61.0 °F - 34.0 °F 36% 29.81 in 10.0 mi SSE 9.2 mph - N/A   Scattered Clouds
2:54 AM 61.0 °F - 34.0 °F 36% 29.79 in 10.0 mi SSE 12.7 mph - N/A   Scattered Clouds
3:54 AM 59.0 °F - 36.0 °F 42% 29.79 in 10.0 mi South 9.2 mph - N/A   Partly Cloudy
4:54 AM 59.0 °F - 35.1 °F 41% 29.79 in 10.0 mi South 9.2 mph - N/A   Clear
5:54 AM 59.0 °F - 36.0 °F 42% 29.80 in 10.0 mi South 12.7 mph 20.7 mph N/A   Clear
6:54 AM 59.0 °F - 41.0 °F 51% 29.81 in 10.0 mi South 17.3 mph 24.2 mph N/A   Partly Cloudy
7:54 AM 59.0 °F - 41.0 °F 51% 29.83 in 10.0 mi South 13.8 mph 23.0 mph N/A   Clear
8:54 AM 61.0 °F - 43.0 °F 52% 29.84 in 10.0 mi South 19.6 mph 26.5 mph N/A   Clear
9:54 AM 59.0 °F - 46.9 °F 64% 29.89 in 10.0 mi SSW 13.8 mph 28.8 mph 0.00 in Rain Light Rain
10:54 AM 55.0 °F - 50.0 °F 83% 29.91 in 6.0 mi SSW 25.3 mph 34.5 mph 0.06 in Rain Rain
11:54 AM 53.1 °F - 48.9 °F 86% 29.92 in 4.0 mi SW 6.9 mph - 0.14 in Rain Light Rain
12:04 PM 53.1 °F - 50.0 °F 89% 30.04 in 7.0 mi SW 5.8 mph - 0.01 in Rain Light Rain
12:29 PM 51.1 °F - 46.9 °F 86% 30.05 in 1.8 mi West 6.9 mph - 0.10 in Rain Heavy Rain
12:48 PM 51.8 °F - 48.2 °F 88% 30.04 in 3.0 mi WNW 3.5 mph - 0.17 in Rain Light Rain
12:49 PM 51.1 °F - 48.0 °F 89% 29.92 in 3.0 mi Calm Calm - 0.17 in Rain Light Rain
12:58 PM 51.1 °F - 48.0 °F 89% 30.03 in 1.8 mi Calm Calm - 0.03 in Rain Rain
1:11 PM 50.0 °F - 48.0 °F 93% 30.02 in 3.0 mi ENE 4.6 mph - 0.09 in Rain Rain
1:54 PM 52.0 °F - 48.9 °F 89% 29.90 in 5.0 mi SSE 9.2 mph - 0.16 in Rain Rain
2:54 PM 52.0 °F - 48.9 °F 89% 29.87 in 4.0 mi SW 12.7 mph 17.3 mph 0.14 in Rain Rain
3:54 PM 52.0 °F - 50.0 °F 93% 29.85 in 6.0 mi South 4.6 mph - 0.07 in Rain Light Rain
4:19 PM 52.0 °F - 50.0 °F 93% 29.96 in 4.0 mi South 6.9 mph - 0.04 in Rain Rain
4:27 PM 52.0 °F - 50.0 °F 93% 29.96 in 5.0 mi South 8.1 mph - 0.05 in Rain Light Rain
4:54 PM 52.0 °F - 50.0 °F 93% 29.85 in 6.0 mi Calm Calm - 0.08 in Rain Light Rain
5:54 PM 51.1 °F - 46.9 °F 86% 29.86 in 6.0 mi South 17.3 mph 25.3 mph 0.07 in Rain Rain
6:01 PM 50.0 °F - 46.0 °F 86% 30.00 in 2.5 mi WSW 19.6 mph 27.6 mph 0.04 in Rain Heavy Rain
6:05 PM 48.0 °F - 45.0 °F 89% 29.99 in 1.8 mi WSW 16.1 mph 27.6 mph 0.06 in Rain Heavy Rain
6:16 PM 48.0 °F - 45.0 °F 89% 30.00 in 2.0 mi SW 10.4 mph - 0.12 in Rain Heavy Rain
6:30 PM 46.9 °F - 44.1 °F 90% 30.00 in 4.0 mi West 8.1 mph - 0.17 in Rain Rain
6:54 PM 46.9 °F - 44.1 °F 90% 29.89 in 5.0 mi NE 3.5 mph - 0.23 in Rain Rain
7:42 PM 46.9 °F - 45.0 °F 93% 29.99 in 5.0 mi NE 6.9 mph - 0.13 in Rain Rain
7:49 PM 46.4 °F 42.4 °F 44.6 °F 93% 29.99 in 5.0 mi ENE 8.1 mph - 0.15 in Rain Rain
7:54 PM 46.9 °F - 45.0 °F 93% 29.89 in 5.0 mi ENE 6.9 mph - 0.16 in Rain Rain
8:43 PM 48.9 °F - 44.1 °F 83% 29.95 in 10.0 mi South 20.7 mph 31.1 mph 0.14 in   Overcast
8:54 PM 48.9 °F - 42.1 °F 77% 29.86 in 10.0 mi SSE 19.6 mph 32.2 mph 0.14 in   Overcast
9:54 PM 48.9 °F - 42.1 °F 77% 29.91 in 10.0 mi SW 5.8 mph - N/A   Overcast
10:13 PM 48.9 °F - 43.0 °F 80% 30.01 in 10.0 mi Calm Calm - N/A   Overcast
10:54 PM 48.9 °F - 43.0 °F 80% 29.93 in 10.0 mi SSW 8.1 mph - N/A   Overcast
11:07 PM 48.9 °F - 43.0 °F 80% 30.01 in 10.0 mi SSE 5.8 mph - N/A   Mostly Cloudy
11:54 PM 46.9 °F - 43.0 °F 86% 29.91 in 10.0 mi ESE 5.8 mph - N/A   Partly Cloudy